| time (UTC) | temp F | wind direction | speed MPH | gust MPH | rain 1hr in | rain 24hr in | rain mn in | humidity % | barometer mb |
| 20260505182353 | 57 | 344 | 1.0 | 10.0 | 0.00 | 0.00 | 0.00 | 68 | 1010.7 |
| 20260505180853 | 58 | 346 | 1.0 | 10.0 | 0.00 | 0.00 | 0.00 | 67 | 1010.8 |
| 20260505173853 | 58 | 316 | 0.0 | 9.0 | 0.00 | 0.00 | 0.00 | 68 | 1010.7 |
| 20260505172354 | 57 | 331 | 0.0 | 8.0 | 0.00 | 0.00 | 0.00 | 70 | 1010.8 |
| 20260505170853 | 57 | 331 | 1.0 | 8.0 | 0.00 | 0.00 | 0.00 | 70 | 1010.8 |
| 20260505165353 | 57 | 338 | 1.0 | 8.0 | 0.00 | 0.00 | 0.00 | 70 | 1010.9 |
| 20260505163853 | 58 | 338 | 0.0 | 8.0 | 0.00 | 0.00 | 0.00 | 70 | 1010.9 |
| 20260505162353 | 58 | 339 | 0.0 | 8.0 | 0.00 | 0.00 | 0.00 | 70 | 1011.0 |
| 20260505160853 | 59 | 334 | 0.0 | 8.0 | 0.00 | 0.00 | 0.00 | 68 | 1011.0 |
| 20260505152353 | 60 | 20 | 1.0 | 8.0 | 0.00 | 0.00 | 0.00 | 66 | 1011.1 |
| 20260505150854 | 60 | 337 | 0.0 | 8.0 | 0.00 | 0.00 | 0.00 | 66 | 1011.1 |
| 20260505123854 | 60 | 302 | 0.0 | 8.0 | 0.00 | 0.00 | 0.00 | 66 | 1011.7 |
| 20260505122353 | 60 | 40 | 0.0 | 8.0 | 0.00 | 0.00 | 0.00 | 64 | 1011.7 |
| 20260505120853 | 60 | 346 | 0.0 | 7.0 | 0.00 | 0.00 | 0.00 | 67 | 1011.7 |
| 20260505113853 | 57 | 297 | 1.0 | 7.0 | 0.00 | 0.00 | 0.00 | 73 | 1011.9 |
| 20260505112353 | 57 | 330 | 0.0 | 7.0 | 0.00 | 0.00 | 0.00 | 75 | 1012.1 |
| 20260505110853 | 55 | 331 | 1.0 | 7.0 | 0.00 | 0.00 | 0.00 | 77 | 1012.2 |
| 20260505100854 | 55 | 43 | 1.0 | 7.0 | 0.00 | 0.00 | 0.00 | 76 | 1012.5 |
| 20260505095353 | 54 | 335 | 1.0 | 7.0 | 0.00 | 0.00 | 0.00 | 77 | 1012.5 |
| 20260505093854 | 54 | 359 | 0.0 | 7.0 | 0.00 | 0.00 | 0.00 | 79 | 1012.5 |
| 20260505092353 | 54 | 59 | 2.0 | 7.0 | 0.00 | 0.00 | 0.00 | 79 | 1012.6 |
| 20260505090853 | 54 | 342 | 1.0 | 7.0 | 0.00 | 0.00 | 0.00 | 82 | 1012.6 |
| 20260505085353 | 53 | 355 | 1.0 | 7.0 | 0.00 | 0.00 | 0.00 | 83 | 1012.7 |
| 20260505083854 | 53 | 323 | 0.0 | 7.0 | 0.00 | 0.00 | 0.00 | 84 | 1012.8 |
| 20260505082353 | 53 | 323 | 2.0 | 7.0 | 0.00 | 0.00 | 0.00 | 85 | 1012.8 |
| 20260505080853 | 52 | 298 | 0.0 | 7.0 | 0.00 | 0.00 | 0.00 | 86 | 1012.8 |
| 20260505075354 | 52 | 296 | 0.0 | 7.0 | 0.00 | 0.00 | 0.00 | 86 | 1012.7 |
| 20260505073853 | 52 | 295 | 0.0 | 7.0 | 0.00 | 0.00 | 0.00 | 85 | 1012.8 |
| 20260505072353 | 52 | 342 | 0.0 | 7.0 | 0.00 | 0.00 | 0.00 | 85 | 1012.9 |
| 20260505070853 | 52 | 341 | 0.0 | 7.0 | 0.00 | 0.00 | 0.00 | 86 | 1012.8 |
| 20260505065353 | 52 | 341 | 1.0 | 7.0 | 0.00 | 0.00 | 0.00 | 87 | 1012.9 |
| 20260505063853 | 52 | 340 | 0.0 | 7.0 | 0.00 | 0.00 | 0.00 | 88 | 1012.9 |
| 20260505062354 | 51 | 338 | 0.0 | 4.0 | 0.00 | 0.00 | 0.00 | 89 | 1012.8 |
| 20260505060853 | 51 | 338 | 1.0 | 4.0 | 0.00 | 0.00 | 0.00 | 89 | 1012.8 |
| 20260505055353 | 51 | 338 | 0.0 | 4.0 | 0.00 | 0.00 | 0.00 | 89 | 1012.8 |
| 20260505053853 | 50 | 338 | 0.0 | 4.0 | 0.00 | 0.00 | 0.00 | 89 | 1012.9 |
| 20260505052353 | 50 | 338 | 0.0 | 4.0 | 0.00 | 0.00 | 0.00 | 90 | 1012.9 |
| 20260505050853 | 50 | 338 | 0.0 | 4.0 | 0.00 | 0.00 | 0.00 | 89 | 1012.8 |
| 20260505040854 | 50 | 338 | 1.0 | 4.0 | 0.00 | 0.00 | 0.00 | 89 | 1013.1 |
| 20260505035354 | 50 | 338 | 0.0 | 4.0 | 0.00 | 0.00 | 0.00 | 89 | 1013.1 |
| 20260505033854 | 50 | 338 | 0.0 | 4.0 | 0.00 | 0.00 | 0.00 | 89 | 1013.1 |
| 20260505032354 | 50 | 338 | 0.0 | 4.0 | 0.00 | 0.00 | 0.00 | 89 | 1013.0 |
| 20260505030854 | 50 | 338 | 0.0 | 4.0 | 0.00 | 0.00 | 0.00 | 88 | 1013.0 |
| 20260505025354 | 50 | 338 | 0.0 | 4.0 | 0.00 | 0.00 | 0.00 | 88 | 1013.0 |
| 20260505023854 | 51 | 338 | 0.0 | 4.0 | 0.00 | 0.00 | 0.00 | 87 | 1012.9 |
| 20260505022354 | 51 | 338 | 0.0 | 4.0 | 0.00 | 0.00 | 0.00 | 87 | 1013.0 |
| 20260505020854 | 51 | 338 | 0.0 | 4.0 | 0.00 | 0.00 | 0.00 | 87 | 1013.1 |
| 20260505015354 | 51 | 338 | 0.0 | 4.0 | 0.00 | 0.00 | 0.00 | 87 | 1013.1 |
| 20260505013854 | 51 | 338 | 0.0 | 4.0 | 0.00 | 0.00 | 0.00 | 86 | 1013.4 |
| 20260505012354 | 52 | 338 | 0.0 | 4.0 | 0.00 | 0.00 | 0.00 | 86 | 1013.4 |
| 20260505010854 | 52 | 0 | 0.0 | 4.0 | 0.00 | 0.00 | 0.00 | 86 | 1013.5 |
| 20260505005354 | 52 | 9 | 0.0 | 4.0 | 0.00 | 0.00 | 0.00 | 86 | 1013.6 |
| 20260505003854 | 53 | 17 | 0.0 | 4.0 | 0.00 | 0.00 | 0.00 | 85 | 1013.5 |
| 20260505002353 | 53 | 18 | 0.0 | 4.0 | 0.00 | 0.00 | 0.00 | 85 | 1013.6 |
| 20260505000853 | 53 | 338 | 1.0 | 4.0 | 0.00 | 0.00 | 0.00 | 85 | 1013.7 |
| 20260504235353 | 53 | 338 | 0.0 | 4.0 | 0.00 | 0.00 | 0.00 | 85 | 1013.7 |
| 20260504233853 | 53 | 336 | 0.0 | 4.0 | 0.00 | 0.00 | 0.00 | 85 | 1013.9 |
| 20260504232353 | 53 | 336 | 1.0 | 4.0 | 0.00 | 0.00 | 0.00 | 85 | 1014.0 |
| 20260504230852 | 53 | 52 | 1.0 | 4.0 | 0.00 | 0.00 | 0.00 | 85 | 1014.0 |
| 20260504225352 | 53 | 355 | 0.0 | 9.0 | 0.00 | 0.00 | 0.00 | 85 | 1014.0 |
| 20260504223853 | 54 | 350 | 0.0 | 9.0 | 0.00 | 0.00 | 0.00 | 84 | 1014.0 |
| 20260504222353 | 54 | 19 | 0.0 | 9.0 | 0.00 | 0.00 | 0.00 | 83 | 1014.0 |
| 20260504220854 | 55 | 21 | 0.0 | 9.0 | 0.00 | 0.00 | 0.00 | 82 | 1014.0 |
| 20260504215353 | 55 | 0 | 0.0 | 9.0 | 0.00 | 0.00 | 0.00 | 82 | 1014.1 |
| 20260504213853 | 55 | 0 | 0.0 | 9.0 | 0.00 | 0.00 | 0.00 | 82 | 1014.1 |
| 20260504212354 | 55 | 338 | 3.0 | 9.0 | 0.00 | 0.00 | 0.00 | 82 | 1014.1 |
| 20260504210853 | 55 | 341 | 1.0 | 9.0 | 0.00 | 0.00 | 0.00 | 82 | 1014.1 |
| 20260504205353 | 56 | 346 | 0.0 | 9.0 | 0.00 | 0.00 | 0.00 | 82 | 1014.1 |
| 20260504203853 | 56 | 344 | 0.0 | 9.0 | 0.00 | 0.00 | 0.00 | 81 | 1014.1 |
| 20260504202353 | 56 | 342 | 0.0 | 9.0 | 0.00 | 0.00 | 0.00 | 81 | 1014.0 |
| 20260504200853 | 57 | 7 | 0.0 | 9.0 | 0.00 | 0.00 | 0.00 | 80 | 1013.9 |
| 20260504195353 | 57 | 355 | 0.0 | 9.0 | 0.00 | 0.00 | 0.00 | 80 | 1013.8 |
| 20260504193853 | 57 | 355 | 0.0 | 9.0 | 0.00 | 0.00 | 0.00 | 80 | 1013.6 |
| 20260504192353 | 57 | 53 | 0.0 | 9.0 | 0.00 | 0.00 | 0.00 | 80 | 1013.6 |
| 20260504190853 | 58 | 46 | 0.0 | 9.0 | 0.00 | 0.00 | 0.00 | 79 | 1013.5 |
| 20260504185353 | 58 | 59 | 0.0 | 9.0 | 0.00 | 0.00 | 0.00 | 79 | 1013.4 |
| 20260504183853 | 58 | 61 | 0.0 | 9.0 | 0.00 | 0.00 | 0.00 | 79 | 1013.4 |